Regional Weather Roundup
Issued by NWS New Orleans/Baton Rouge, LA

Home | Current Version | Previous Version | Graphics & Text | Print | Product List | Glossary On
Versions: 1 2 3 4 5 6 7 8 9 10 11 12 13 14 15 16 17 18 19 20 21 22 23 24 25 26 27 28 29 30 31 32 33 34 35 36 37 38 39 40 41 42 43 44 45 46 47 48 49 50
509
ASUS44 KLIX 062305
RWRLIX
NEW ORLEANS REGIONAL WEATHER ROUNDUP
NATIONAL WEATHER SERVICE NEW ORLEANS LA
500 PM CST FRI MAR 06 2015

NOTE: "FAIR" INDICATES FEW OR NO CLOUDS BELOW 12,000 FEET WITH NO
      SIGNIFICANT WEATHER AND/OR OBSTRUCTIONS TO VISIBILITY.
      SKY/WX - SKY CONDITION AND SIGNIFICANT WEATHER.
      TMP - AIR TEMPERATURE.     DP    - DEWPOINT TEMPERATURE.
      RH  - RELATIVE HUMIDITY.   PRES  - PRESSURE.
      HI  - HEAT INDEX.          WCI   - WIND CHILL INDEX.

*  THESE STATIONS ARE NOT NWS OR FAA STATIONS AND ARE NOT UNDER
   NWS QUALITY CONTROL.

LAZ038-040-048-061>063-065>067-069-070000-
SOUTHEAST LOUISIANA

CITY           SKY/WX    TMP DP  RH WIND       PRES   REMARKS
N.O. AUDUBON   NOT AVBL
N.O. INTL ARPT PTSUNNY   52  18  26 N8        30.41S
N.O. LAKEFRONT MOSUNNY   56  18  22 N7        30.41S
SLIDELL        MOSUNNY   55  16  21 N9        30.40S
BATON ROUGE    PTSUNNY   53  14  21 N5        30.43S
BOOTHVILLE     CLOUDY    49  29  46 N7        30.40S
BELLE CHASSE   PTSUNNY   53  17  24 N5        30.40S
BOGALUSA*        N/A     54  15  21 N9        30.43S
GALLIANO*      CLOUDY    51  20  30 MISG      30.41F
NEW ROADS*       N/A     48  25  40 NW10      30.46R
GONZALES*        N/A     53  15  21 N7        30.42R
HAMMOND*       PTSUNNY   54   9  16 N8        30.44R
HOUMA*         SUNNY     52  21  30 N9        30.41S
PORT FOURCHON* CLEAR     50  25  37 N12       30.43S

$$

MSZ070-080>082-070000-
SOUTHERN MISSISSIPPI

CITY           SKY/WX    TMP DP  RH WIND       PRES   REMARKS
MCCOMB         PTSUNNY   50  10  20 NE9       30.43S
GULFPORT       MOSUNNY   54  15  21 N10       30.38S
BILOXI           N/A     54  18  24 NE10      30.38S
PASCAGOULA     MOSUNNY   54  16  22 N12       30.38S
STENNIS ARPT*  SUNNY     55   3  12 N12       30.40S

$$

COASTAL OBSERVATIONS
LAKE AND NEARSHORE STATIONS

STATION/POSITION TIME  TEMP    WIND        PRES    WAVE
                       AIR SEA DIR/SP/G            HT/PER
                 (UTC) (F)     (DEG/KT/KT) (MB)    (FT/S)
PASCAGOULA       2300   54     350/ 10/ 15 1028.0
WAVELAND YACHT   2300   53 52   10/ 11/ 13 1028.8
GRAND ISLE       2300   50 57   10/ 12/ 16 1029.6
SOUTHWEST PASS   2300   49 43   10/ 17/ 19 1029.2
NEW CANAL        2300   51     350/  6/  8 1030.1
SHELL BEACH      2300   50 53   40/  4/  6 1029.3

OFFSHORE STATIONS

STATION/POSITION TIME  TEMP    WIND        PRES    WAVE
                       AIR SEA DIR/SP/G            HT/PER
                 (UTC) (F)     (DEG/KT/KT) (MB)    (FT/S)
64 S DAUPHIN ISL 2152   50 66   30/ 17/ 23 1028.2    5/ 6

$$




USA.gov is the U.S. government's official web portal to all federal, state and local government web resources and services.